RYR50NB LFRS-EIDW

Flight info

Callsign RYR50NB
Flight time 1h 13m
Altitude 38000
Route ERBIN DCT LUTAS DCT BAGAD DCT TERKU DCT DOLUR DCT UPCAB DCT IJALA DCT EVRIN DCT BUNED BUNED4L
Aircraft B738/M-SDE2E3FGHIRWXY/LB1

Departure

Time 2026-05-04 15:02
Airport Nantes Atlantique Airport (LFRS)

Arrival

Time 2026-05-04 16:15
Airport Dublin Airport (EIDW)
Time Latitude Longitude Altitude Speed Heading
2026-05-04 14:22 47.15675 -1.60224 89 ft 0 kts 35°
2026-05-04 14:51 47.15674 -1.60226 89 ft 1 kts 35°
2026-05-04 14:51 47.15660 -1.60240 89 ft 3 kts 35°
2026-05-04 14:52 47.15644 -1.60257 89 ft 3 kts 41°
2026-05-04 14:52 47.15631 -1.60277 92 ft 3 kts 72°
2026-05-04 14:52 47.15630 -1.60301 92 ft 3 kts 122°
2026-05-04 14:52 47.15637 -1.60314 90 ft 2 kts 138°
2026-05-04 14:53 47.15649 -1.60330 90 ft 2 kts 138°
2026-05-04 14:53 47.15652 -1.60333 89 ft 0 kts 138°
2026-05-04 14:55 47.15651 -1.60333 89 ft 1 kts 138°
2026-05-04 14:55 47.15632 -1.60307 92 ft 8 kts 137°
2026-05-04 14:56 47.15571 -1.60277 89 ft 11 kts 195°
2026-05-04 14:56 47.15519 -1.60356 92 ft 11 kts 257°
2026-05-04 14:56 47.15546 -1.60460 92 ft 11 kts 304°
2026-05-04 14:56 47.15587 -1.60552 91 ft 10 kts 290°
2026-05-04 14:57 47.15551 -1.60626 90 ft 10 kts 208°
2026-05-04 14:57 47.15478 -1.60683 90 ft 14 kts 208°
2026-05-04 14:57 47.15377 -1.60759 91 ft 18 kts 207°
2026-05-04 14:57 47.15258 -1.60851 91 ft 22 kts 207°
2026-05-04 14:58 47.15115 -1.60960 90 ft 24 kts 207°
2026-05-04 14:58 47.14957 -1.61079 87 ft 26 kts 207°
2026-05-04 14:58 47.14804 -1.61194 89 ft 24 kts 207°
2026-05-04 14:58 47.14661 -1.61306 91 ft 23 kts 208°
2026-05-04 14:59 47.14523 -1.61412 89 ft 22 kts 207°
2026-05-04 14:59 47.14388 -1.61514 87 ft 22 kts 207°
2026-05-04 14:59 47.14178 -1.61682 84 ft 10 kts 231°
2026-05-04 15:00 47.14150 -1.61773 83 ft 10 kts 250°
2026-05-04 15:00 47.14146 -1.61868 87 ft 9 kts 288°
2026-05-04 15:00 47.14183 -1.61936 87 ft 8 kts
2026-05-04 15:01 47.14244 -1.61890 84 ft 24 kts 28°
2026-05-04 15:01 47.14608 -1.61613 92 ft 93 kts 27°
2026-05-04 15:01 47.15367 -1.61037 89 ft 151 kts 27°
2026-05-04 15:01 47.16361 -1.60252 499 ft 164 kts 27°
2026-05-04 15:02 47.17410 -1.59686 1241 ft 158 kts 356°
2026-05-04 15:02 47.18387 -1.60438 1735 ft 171 kts 306°
2026-05-04 15:02 47.18924 -1.62140 2007 ft 198 kts 294°
2026-05-04 15:02 47.19463 -1.64096 2385 ft 211 kts 294°
2026-05-04 15:03 47.20036 -1.66118 2981 ft 215 kts 295°
2026-05-04 15:03 47.20623 -1.68126 3688 ft 218 kts 295°
2026-05-04 15:03 47.21270 -1.70289 3945 ft 244 kts 295°
2026-05-04 15:03 47.21984 -1.72653 4335 ft 261 kts 295°
2026-05-04 15:04 47.22728 -1.75106 5069 ft 267 kts 295°
2026-05-04 15:04 47.23560 -1.77583 5960 ft 273 kts 299°
2026-05-04 15:04 47.24444 -1.80090 6823 ft 279 kts 296°
2026-05-04 15:04 47.25283 -1.82693 7756 ft 282 kts 295°
2026-05-04 15:05 47.26108 -1.85302 8697 ft 286 kts 295°
2026-05-04 15:05 47.26951 -1.87980 9712 ft 289 kts 295°
2026-05-04 15:05 47.27805 -1.90684 10479 ft 298 kts 294°
2026-05-04 15:05 47.28720 -1.93575 10712 ft 325 kts 294°
2026-05-04 15:06 47.29711 -1.96702 11060 ft 345 kts 294°
2026-05-04 15:06 47.30742 -1.99952 11751 ft 353 kts 294°
2026-05-04 15:06 47.31788 -2.03246 12588 ft 357 kts 294°
2026-05-04 15:07 47.33917 -2.09953 14203 ft 365 kts 293°
2026-05-04 15:07 47.35003 -2.13376 14727 ft 370 kts 294°
2026-05-04 15:07 47.36310 -2.16640 15037 ft 375 kts 307°
2026-05-04 15:07 47.38132 -2.19440 15671 ft 382 kts 318°
2026-05-04 15:08 47.40150 -2.22006 16459 ft 384 kts 318°
2026-05-04 15:08 47.42193 -2.24590 17180 ft 389 kts 318°
2026-05-04 15:08 47.44256 -2.27207 17857 ft 394 kts 318°
2026-05-04 15:08 47.46338 -2.29862 18495 ft 399 kts 318°
2026-05-04 15:09 47.48453 -2.32574 19096 ft 403 kts 317°
2026-05-04 15:09 47.50550 -2.35275 19685 ft 408 kts 317°
2026-05-04 15:09 47.52702 -2.38055 20270 ft 412 kts 317°
2026-05-04 15:10 47.57061 -2.43706 21408 ft 422 kts 316°
2026-05-04 15:10 47.59257 -2.46559 21965 ft 426 kts 316°
2026-05-04 15:10 47.63756 -2.52416 23123 ft 435 kts 316°
2026-05-04 15:11 47.66045 -2.55400 23651 ft 440 kts 316°
2026-05-04 15:11 47.68353 -2.58414 24126 ft 444 kts 316°
2026-05-04 15:11 47.70673 -2.61445 24643 ft 446 kts 316°
2026-05-04 15:11 47.73003 -2.64493 25146 ft 448 kts 316°
2026-05-04 15:12 47.74552 -2.66523 25459 ft 450 kts 316°
2026-05-04 15:12 47.76908 -2.69612 25915 ft 453 kts 316°
2026-05-04 15:12 47.79275 -2.72720 26363 ft 455 kts 316°
2026-05-04 15:12 47.81657 -2.75852 26802 ft 458 kts 316°
2026-05-04 15:13 47.84053 -2.79006 27237 ft 461 kts 316°
2026-05-04 15:13 47.86452 -2.82169 27657 ft 464 kts 316°
2026-05-04 15:13 47.88878 -2.85371 28063 ft 466 kts 316°
2026-05-04 15:13 47.91309 -2.88584 28467 ft 469 kts 316°
2026-05-04 15:14 47.93757 -2.91823 28860 ft 471 kts 316°
2026-05-04 15:14 47.96210 -2.95074 29241 ft 474 kts 316°
2026-05-04 15:14 47.98689 -2.98363 29635 ft 477 kts 317°
2026-05-04 15:14 48.01162 -3.01649 30048 ft 478 kts 317°
2026-05-04 15:15 48.03648 -3.04956 30366 ft 479 kts 317°
2026-05-04 15:15 48.06141 -3.08277 30663 ft 481 kts 317°
2026-05-04 15:15 48.08639 -3.11608 30965 ft 482 kts 317°
2026-05-04 15:16 48.13627 -3.18276 31856 ft 478 kts 317°
2026-05-04 15:16 48.16098 -3.21584 32323 ft 475 kts 316°
2026-05-04 15:16 48.21014 -3.28182 33089 ft 474 kts 316°
2026-05-04 15:17 48.23461 -3.31473 33485 ft 473 kts 316°
2026-05-04 15:17 48.28334 -3.38040 34282 ft 469 kts 316°
2026-05-04 15:17 48.30725 -3.41270 34566 ft 469 kts 316°
2026-05-04 15:18 48.33147 -3.44545 34854 ft 469 kts 316°
2026-05-04 15:18 48.35577 -3.47835 35123 ft 470 kts 316°
2026-05-04 15:18 48.38005 -3.51128 35417 ft 469 kts 316°
2026-05-04 15:19 48.42836 -3.57690 36036 ft 467 kts 316°
2026-05-04 15:19 48.45250 -3.60975 36300 ft 467 kts 316°
2026-05-04 15:19 48.50062 -3.67538 36838 ft 466 kts 316°
2026-05-04 15:20 48.52469 -3.70828 37111 ft 466 kts 316°
2026-05-04 15:20 48.54865 -3.74107 37354 ft 466 kts 316°
2026-05-04 15:20 48.57265 -3.77396 37620 ft 466 kts 316°
2026-05-04 15:20 48.59659 -3.80681 37895 ft 465 kts 316°
2026-05-04 15:21 48.62058 -3.83978 37999 ft 468 kts 316°
2026-05-04 15:21 48.64469 -3.87296 38004 ft 470 kts 316°
2026-05-04 15:22 48.71678 -3.97240 37989 ft 464 kts 316°
2026-05-04 15:22 48.78800 -4.07104 37988 ft 460 kts 316°
2026-05-04 15:23 48.83513 -4.13654 37991 ft 459 kts 316°
2026-05-04 15:23 48.88218 -4.20212 37992 ft 459 kts 316°
2026-05-04 15:24 48.97630 -4.33381 38006 ft 461 kts 316°
2026-05-04 15:25 49.02360 -4.40025 37998 ft 463 kts 316°
2026-05-04 15:26 49.09485 -4.50068 37999 ft 466 kts 316°
2026-05-04 15:26 49.16632 -4.60184 37998 ft 468 kts 316°
2026-05-04 15:27 49.23753 -4.70305 37996 ft 468 kts 316°
2026-05-04 15:28 49.30850 -4.80433 37996 ft 468 kts 316°
2026-05-04 15:29 49.37970 -4.90636 37996 ft 466 kts 316°
2026-05-04 15:30 49.55585 -5.12112 37999 ft 463 kts 331°
2026-05-04 15:31 49.64053 -5.19261 37999 ft 462 kts 331°
2026-05-04 15:32 49.78058 -5.31425 38004 ft 462 kts 330°
2026-05-04 15:34 49.92019 -5.43676 38009 ft 463 kts 330°
2026-05-04 15:34 50.00426 -5.51090 38017 ft 464 kts 330°
2026-05-04 15:35 50.08828 -5.58530 38011 ft 464 kts 331°
2026-05-04 15:36 50.17245 -5.66013 38015 ft 464 kts 330°
2026-05-04 15:36 50.22856 -5.71019 38022 ft 464 kts 330°
2026-05-04 15:37 50.28457 -5.76030 38014 ft 464 kts 330°
2026-05-04 15:37 50.34054 -5.81051 38018 ft 463 kts 330°
2026-05-04 15:38 50.39643 -5.86077 38016 ft 463 kts 330°
2026-05-04 15:38 50.45216 -5.91105 38014 ft 462 kts 330°
2026-05-04 15:39 50.50780 -5.96137 38009 ft 461 kts 330°
2026-05-04 15:40 50.59100 -6.03688 38008 ft 460 kts 330°
2026-05-04 15:40 50.64645 -6.08738 38019 ft 460 kts 331°
2026-05-04 15:41 50.70183 -6.13795 38016 ft 459 kts 331°
2026-05-04 15:41 50.75711 -6.18857 38020 ft 459 kts 331°
2026-05-04 15:42 50.81239 -6.23934 38023 ft 459 kts 331°
2026-05-04 15:42 50.86761 -6.29017 38018 ft 459 kts 332°
2026-05-04 15:43 50.92641 -6.32774 38018 ft 456 kts 349°
2026-05-04 15:43 50.98872 -6.34567 38017 ft 455 kts 352°
2026-05-04 15:44 51.05125 -6.36292 38025 ft 456 kts 351°
2026-05-04 15:44 51.11353 -6.38103 38026 ft 456 kts 351°
2026-05-04 15:45 51.17600 -6.39962 38022 ft 457 kts 351°
2026-05-04 15:45 51.23845 -6.41825 38027 ft 457 kts 351°
2026-05-04 15:46 51.30098 -6.43672 37833 ft 458 kts 352°
2026-05-04 15:46 51.33247 -6.44431 37557 ft 456 kts 355°
2026-05-04 15:46 51.36389 -6.44948 37271 ft 451 kts 357°
2026-05-04 15:46 51.39508 -6.45352 36681 ft 449 kts 358°
2026-05-04 15:47 51.42612 -6.45721 36132 ft 447 kts 358°
2026-05-04 15:47 51.45719 -6.46097 35511 ft 447 kts 358°
2026-05-04 15:47 51.48825 -6.46492 34874 ft 448 kts 358°
2026-05-04 15:47 51.51927 -6.46907 34316 ft 447 kts 358°
2026-05-04 15:48 51.54963 -6.47329 33811 ft 444 kts 359°
2026-05-04 15:48 51.58072 -6.47770 33286 ft 439 kts 359°
2026-05-04 15:48 51.64092 -6.48636 32317 ft 429 kts 359°
2026-05-04 15:49 51.67050 -6.49064 31902 ft 423 kts 360°
2026-05-04 15:49 51.69962 -6.49484 31440 ft 419 kts
2026-05-04 15:49 51.72842 -6.49899 31001 ft 414 kts
2026-05-04 15:49 51.75660 -6.50305 30573 ft 409 kts
2026-05-04 15:50 51.78518 -6.50717 30138 ft 405 kts
2026-05-04 15:50 51.81312 -6.51120 29635 ft 400 kts
2026-05-04 15:50 51.84059 -6.51516 29181 ft 394 kts
2026-05-04 15:50 51.86777 -6.51909 28699 ft 389 kts
2026-05-04 15:51 51.89451 -6.52297 28304 ft 383 kts
2026-05-04 15:51 51.92051 -6.52673 27885 ft 378 kts
2026-05-04 15:51 51.94658 -6.53051 27442 ft 374 kts
2026-05-04 15:51 51.97232 -6.53424 27030 ft 370 kts
2026-05-04 15:52 51.99782 -6.53793 26593 ft 367 kts
2026-05-04 15:52 52.02319 -6.54161 26175 ft 364 kts
2026-05-04 15:52 52.04821 -6.54525 25767 ft 361 kts
2026-05-04 15:52 52.07312 -6.54887 25359 ft 359 kts
2026-05-04 15:53 52.09794 -6.55249 24954 ft 356 kts 360°
2026-05-04 15:53 52.12246 -6.55607 24552 ft 354 kts 360°
2026-05-04 15:53 52.14703 -6.55966 24151 ft 352 kts 359°
2026-05-04 15:53 52.17136 -6.56322 23763 ft 350 kts 359°
2026-05-04 15:54 52.19559 -6.56677 23318 ft 349 kts 359°
2026-05-04 15:54 52.21974 -6.57031 22871 ft 347 kts 359°
2026-05-04 15:54 52.24373 -6.57383 22458 ft 345 kts 359°
2026-05-04 15:54 52.26752 -6.57734 22063 ft 342 kts 359°
2026-05-04 15:55 52.29119 -6.58082 21664 ft 340 kts 359°
2026-05-04 15:55 52.31468 -6.58429 21272 ft 338 kts 358°
2026-05-04 15:55 52.33803 -6.58773 20889 ft 336 kts 358°
2026-05-04 15:55 52.36126 -6.59116 20494 ft 335 kts 358°
2026-05-04 15:56 52.38439 -6.59458 20122 ft 333 kts 358°
2026-05-04 15:56 52.40742 -6.59799 19745 ft 332 kts 358°
2026-05-04 15:56 52.43036 -6.60139 19366 ft 331 kts 357°
2026-05-04 15:56 52.45314 -6.60476 18994 ft 330 kts 357°
2026-05-04 15:57 52.47598 -6.60816 18613 ft 330 kts 357°
2026-05-04 15:57 52.49879 -6.61155 18217 ft 329 kts 357°
2026-05-04 15:57 52.51390 -6.61380 17931 ft 329 kts 357°
2026-05-04 15:57 52.53665 -6.61719 17514 ft 328 kts 357°
2026-05-04 15:58 52.55931 -6.62057 17127 ft 326 kts 357°
2026-05-04 15:58 52.58174 -6.62392 16743 ft 325 kts 357°
2026-05-04 15:58 52.60418 -6.62727 16363 ft 323 kts 356°
2026-05-04 15:58 52.62656 -6.63059 15990 ft 321 kts 356°
2026-05-04 15:59 52.64884 -6.63291 15611 ft 320 kts 358°
2026-05-04 15:59 52.67102 -6.63462 15229 ft 320 kts 359°
2026-05-04 15:59 52.69322 -6.63622 14857 ft 318 kts 359°
2026-05-04 15:59 52.71529 -6.63784 14493 ft 317 kts 359°
2026-05-04 16:00 52.73731 -6.63951 14131 ft 316 kts 358°
2026-05-04 16:00 52.75921 -6.64122 13761 ft 315 kts 358°
2026-05-04 16:00 52.78103 -6.64297 13358 ft 313 kts 358°
2026-05-04 16:00 52.80270 -6.64472 12989 ft 311 kts 358°
2026-05-04 16:01 52.82427 -6.64647 12620 ft 309 kts 358°
2026-05-04 16:01 52.84568 -6.64821 12256 ft 307 kts 357°
2026-05-04 16:01 52.86684 -6.65003 12054 ft 301 kts 357°
2026-05-04 16:01 52.88764 -6.65191 11746 ft 298 kts 357°
2026-05-04 16:02 52.90835 -6.65380 11406 ft 299 kts 357°
2026-05-04 16:02 52.92926 -6.65572 11071 ft 303 kts 357°
2026-05-04 16:02 52.97183 -6.65960 10390 ft 308 kts 357°
2026-05-04 16:03 52.99293 -6.66152 10260 ft 299 kts 357°
2026-05-04 16:03 53.01320 -6.66337 10110 ft 290 kts 357°
2026-05-04 16:03 53.03339 -6.66521 9871 ft 286 kts 357°
2026-05-04 16:03 53.05317 -6.66701 9552 ft 285 kts 357°
2026-05-04 16:04 53.07289 -6.66881 9248 ft 283 kts 356°
2026-05-04 16:04 53.11194 -6.67237 8637 ft 279 kts 356°
2026-05-04 16:04 53.13126 -6.67414 8344 ft 278 kts 356°
2026-05-04 16:05 53.15050 -6.67590 8042 ft 277 kts 356°
2026-05-04 16:05 53.16970 -6.67766 7751 ft 276 kts 356°
2026-05-04 16:05 53.20824 -6.68120 7103 ft 278 kts 355°
2026-05-04 16:06 53.22756 -6.68297 6794 ft 278 kts 356°
2026-05-04 16:06 53.27778 -6.68759 5967 ft 269 kts 355°
2026-05-04 16:07 53.30245 -6.68987 5766 ft 261 kts 356°
2026-05-04 16:07 53.35376 -6.69458 5443 ft 230 kts 355°
2026-05-04 16:08 53.36934 -6.69570 5277 ft 220 kts
2026-05-04 16:08 53.41235 -6.68881 4836 ft 193 kts
2026-05-04 16:09 53.43823 -6.68421 4620 ft 185 kts 11°
2026-05-04 16:09 53.45410 -6.65292 4441 ft 193 kts 85°
2026-05-04 16:10 53.45496 -6.60654 4092 ft 200 kts 89°
2026-05-04 16:11 53.45183 -6.53771 3282 ft 196 kts 94°
2026-05-04 16:11 53.45051 -6.51510 3019 ft 194 kts 93°
2026-05-04 16:12 53.44667 -6.44850 2236 ft 187 kts 93°
2026-05-04 16:12 53.44319 -6.38768 1497 ft 157 kts 92°
2026-05-04 16:13 53.44129 -6.35379 1094 ft 141 kts 90°
2026-05-04 16:13 53.43934 -6.32114 726 ft 141 kts 94°
2026-05-04 16:14 53.43760 -6.28897 332 ft 138 kts 95°
2026-05-04 16:14 53.43608 -6.26090 209 ft 74 kts 95°
2026-05-04 16:15 53.43431 -6.24994 212 ft 9 kts 164°
2026-05-04 16:16 53.43384 -6.25147 213 ft 10 kts 274°
2026-05-04 16:16 53.43365 -6.25650 212 ft 13 kts 178°
2026-05-04 16:17 53.43113 -6.25474 216 ft 19 kts 157°
2026-05-04 16:18 53.42962 -6.25179 210 ft 14 kts 92°
2026-05-04 16:18 53.42956 -6.25053 216 ft 10 kts 95°
2026-05-04 16:19 53.43003 -6.24878 210 ft 1 kts
2026-05-04 16:19 53.43004 -6.24878 210 ft 0 kts